Regional Weather Roundup
Issued by NWS Goodland, KS

Home | Current Version | Previous Version | Text Only | Print | Product List | Glossary On
Versions: 1 2 3 4 5 6 7 8 9 10 11 12 13 14 15 16 17 18 19 20 21 22 23 24 25 26 27 28 29 30 31 32 33 34 35 36 37 38 39 40 41 42 43 44 45 46 47 48 49 50
000
ASUS43 KGLD 231008
RWRGLD

GOODLAND FORECAST AREA HOURLY WEATHER ROUNDUP
NATIONAL WEATHER SERVICE GOODLAND KS
400 AM MDT SUN APR 23 2017

...OFFICIAL OBSERVATIONS...

CITY           SKY/WX    TMP DP  RH WIND       PRES   REMARKS
GOODLAND KS    CLEAR     40  30  67 S14       30.15F
HILL CITY KS   CLEAR     35  31  85 W5        30.19F
IMPERIAL NEB   CLOUDY    38  31  76 S10       30.13F
MCCOOK NEB     CLOUDY    35  29  78 W7        30.17R
AKRON CO       CLEAR     39  31  72 S15       30.08F
BURLINGTON CO  NOT AVBL
LIMON CO       CLEAR     37  32  82 S13       30.12F
$$

...UNOFFICIAL OBSERVATIONS...

CITY           SKY/WX    TMP DP  RH WIND       PRES   REMARKS
LENORA KS        N/A     42  32  68 MISG        N/A
NORTON KS      CLEAR     34  25  69 S5        30.15F
SHARON SPRINGS   N/A     35  32  88 S10         N/A
TRENTON NEB      N/A     36  32  85 CALM        N/A
KIT CARSON CO    N/A     33  30  88 MISG        N/A
YUMA CO        FAIR      36  32  87 S12       30.10F
$$



USA.gov is the U.S. government's official web portal to all federal, state and local government web resources and services.